Zurück zum Katalog

STARLINK-32741

AktivKommunikationVLEO
NORAD 62526·PAYLOAD·🇺🇸 United States

Gestartet Jan 8, 2025 von Cape Canaveral Space Force Station

Loading…

Nächste Überflüge (nächste 24 Stunden)

TLE

AktuellSource: CelesTrak SupGP

Epoche: Sep 14, 2026, 21:30 UTC

1 62526C 25004R   26257.89631944  .00037962  00000+0  13753-2 0  2572
2 62526  43.0026 228.0726 0001271 259.8415  75.3966 15.27553159    10

Verfolge STARLINK-32741 in Echtzeit mit AllMySat

Download on the App Store